IUS DEB, 43362

Orbit data source: Space-Track

IUS DEB, 43362 is space debris originally from a launch on Fri, 23 Jul 1999 UTC launched from the Air Force Eastern Test Range (AFETR). Debris objects in space refer to the collection of defunct objects orbiting the Earth. Examples of debris include non-operational satellites, rocket bodies, and fragments generated from explosions, collisions, or faulty payload assembly.

Loading next visibility...
Identifier
43362, 1999-040K
Orbit
Active
Country
Flag of USUS
Related business
Manufacturer
Boeing/Kent
Mission
Spacecraft
Bus & Motor
Unknown
Mass
Unknown
Launch date (UTC)
1999-07-23 (26 years ago)
Launch vehicle
Unknown
Launch site
Air Force Eastern Test Range (AFETR)
Object type
Payload
Rocket body
Debris
Shape & HBR
Unknown shape, 0.1 m
Radar Cross Section
Small (<0.1 m²)

Expand to show TLE details & history
Last TLE update: 3 weeks ago

TLE from 3 weeks ago
0 IUS DEB
1 43362U 99040K   25278.48370013 -.00001219  00000-0 -10221-1 0  9992
2 43362  28.0688 224.9823 3683344 197.0371 146.3312  7.09380226250139
Epoch: 2025-10-05T11:36Z
TLE epoch observation values (Epoch: 2025-10-05T11:36:31.691Z)
Latitude
-0.00001°
Longitude
36.44959°
Altitude
8,886.482 km
Speed
4.171 km/s
True Right ascension
14h 59m 55s
True Declination
0° 00' 00"
Sunlit
Object was in daylight at epoch
Visualization orbit readout
Latitude
Unknown
Longitude
Unknown
Altitude
Unknown
Speed
Unknown
Apparent Right ascension
Unknown
Apparent Declination
Unknown
Sunlit
N/A
Visualization observer readout
Local Sidereal Time
13:19:00
Azimuth
Unknown
Elevation
Unknown
Doppler factor
Unknown
Orbital elements
Apogee altitude
9,282.031 km
Perigee altitude
851.082 km
Semi-major axis
11,444.694 km
Eccentricity
0.36833
Inclination
28.0688°
RAAN
224.9823°
Arg. of periapsis
197.0371°
True anomaly
162.99888°
Mean anomaly
146.3312°
Eccentric anomaly
155.1875°
Mean motion
1.77271 °/min
Orbital period
203.08 mins
BSTAR
-0.010221
Loading maneuver chart data...
Computing Atmospheric mass density...
Loading historical data...
Loading historical data...
Loading historical data...
Loading historical data...
Loading historical data...
Loading historical data...
Loading historical data...

Documentation

Showing up to 5 results
|